Flag for Germany Weather past 2 weeks in Bünde, North Rhine-Westphalia, Germany

Now
43 °F

Partly sunny.


Feels Like: 33 °F
Forecast: 34 / 37 °F
Wind: 23 mph from Southwest

Location: Bueckeburg

Current Time: Jan 28, 2015 at 4:00:34 PM

Latest Report: Jan 28, 2015 at 3:20 PM


Visibility: N/A

Pressure: 29.45 "Hg

Humidity: 71%

Dew point: 34 °F

Location of BündeLocation

Historic Weather in Bünde — Graph

°F

Bünde temperature yesterday

Maximum temperature yesterday: 41 °F (at 12:20 PM)
Minimum temperature yesterday: 34 °F (at 11:20 PM)
Average temperature yesterday: 38 °F

Past Weeks' High & Low Weather Summary

 TemperatureHumidityPressure
High52 °F (Jan 13, 2:20 PM)100% (Jan 20, 6:20 AM)30.33 "Hg (Jan 20, 6:20 AM)
Low27 °F (Jan 21, 7:20 AM)60% (Jan 21, 1:20 PM)29.42 "Hg (Jan 15, 2:20 PM)
Average36 °F84%29.94 "Hg
* Reported Jan 13 2:20 PM — Jan 28 2:20 PM, Bünde, Weather by CustomWeather, © 2014

Note: Actual official high and low records may vary slightly from our data, if they occured in-between our weather recording intervals... More about our weather records

Advertising

Bünde weather history for previous 24 hours

 ConditionsComfort  
Time TempWeatherWind HumidityBarometerVisibility
2:20 PM
Jan 28
43 °FPartly sunny.22 mph71%29.53 "HgN/A
1:20 PM43 °FPartly sunny.16 mph71%29.59 "HgN/A
12:20 PM43 °FBroken clouds.20 mph76%29.68 "HgN/A
11:20 AM41 °FScattered clouds.18 mph81%29.74 "HgN/A
10:20 AM41 °FPartly sunny.16 mph81%29.80 "HgN/A
9:20 AM39 °FPartly sunny.17 mph87%29.83 "HgN/A
8:49 AM39 °FLight rain. Partly sunny.15 mph87%29.86 "Hg6 mi
8:20 AM39 °FLight rain. Partly sunny.13 mph87%29.89 "Hg4 mi
7:20 AM39 °FPassing clouds.14 mph81%29.92 "HgN/A
7:01 AM39 °FPassing clouds.14 mph87%29.92 "HgN/A
6:20 AM39 °FPassing clouds.14 mph87%29.95 "HgN/A
5:20 AM39 °FPartly cloudy.9 mph87%29.98 "Hg5 mi
4:20 AM37 °FPassing clouds.12 mph93%30.01 "Hg5 mi
3:20 AM39 °FPassing clouds.10 mph87%30.04 "Hg5 mi
2:20 AM39 °FPassing clouds.8 mph93%30.07 "Hg5 mi
1:20 AM39 °FPassing clouds.7 mph93%30.07 "Hg5 mi
12:20 AM37 °FPartly cloudy.7 mph93%30.07 "HgN/A
11:20 PM
Jan 27
34 °FPassing clouds.2 mph100%30.09 "HgN/A
10:20 PM37 °FPassing clouds.7 mph87%30.09 "HgN/A
9:20 PM37 °FPassing clouds.7 mph93%30.09 "HgN/A
8:20 PM37 °FPassing clouds.8 mph93%30.12 "HgN/A
7:20 PM36 °FPassing clouds.1 mph93%30.12 "HgN/A
6:20 PM36 °FPassing clouds.7 mph93%30.09 "HgN/A
5:20 PM36 °FPassing clouds.7 mph93%30.09 "HgN/A
4:20 PM39 °FSprinkles. Broken clouds.7 mph87%30.09 "HgN/A
Weather by CustomWeather, © 2014

See weather overviewHow to use our weather pages